User: anonymous   Login
Location: ????????
(54.9045°N, 39.1041°E)
Time: 22:30:06
(UTC+00:00)
Language:

Thor Agena Rocket - Orbit

View from above orbital plane
View from above orbital plane
View from above satellite
View from above satellite

Ground track
Ground track

The orbit data is extracted from the following two-line orbital elements,

1 00733U 64002A   24170.51934986  .00000368  00000-0  15070-3 0  9997
2 00733  99.0739 140.0550 0032265 291.0412  68.7321 14.33230280148145
Epoch (UTC): 18 June 2024 12:27:51
Eccentricity: 0.0032265
inclination: 99.0739°
perigee height: 758 km
apogee height: 804 km
right ascension of ascending node: 140.0550°
argument of perigee: 291.0412°
revolutions per day: 14.33230280
mean anomaly at epoch: 68.7321°
orbit number at epoch: 14814

The dashed part of the orbit path shows where the satellite is in the earth's shadow,  

DLR